Location: Paris
(48.6709°N, 2.3750°E)
Time: 07:08:17
(UTC+02:00)

YUBILEINY - Pass Details

Date: 01 July 2022
Orbit: 1478 x 1509 km, 82.5° (Epoch: 17 August)

Event Time Altitude Azimuth Distance (km) Brightness Sun altitude
Rises 03:56:35 0° 351° (N) 4,657 ? -13.2°
Reaches altitude 10° 04:00:36 10° 8° (N) 3,669 ? -12.9°
Maximum altitude 04:06:52 21° 54° (NE) 2,897 ? -12.3°
Drops below altitude 10° 04:13:04 10° 100° (E) 3,641 ? -11.8°
Sets 04:16:58 0° 116° (ESE) 4,611 ? -11.5°
